Date String (YYYY-MM-DD hh:mm:ss) UTC,Instrument flags,absolute air pressure of the measurement (hPa),sample flow rate (lpm),inlet stack bypass flow (lpm),air temperature of the measurement (°C),ambient temperature measured by the external sensor (°C),aerosol sample conditioner tube jacket temperature (°C),OPC LED temperature (°C),internal box temperature (°C),relative humidity of the measurement (%),span deviation,mass concentration of particles derived from Lorenz-Mie calculation of OPC scattering (μg/m³),mass concentration of particles derived from Lorenz-Mie calculation of OPC scattering (μg/m³),mass concentration of particles derived from Lorenz-Mie calculation of OPC scattering (μg/m³)
DateTimeUTC,F1_M11,P_M11,Q1_M11,Q2_M11,T1_M11,T2_M11,T3_M11,T4_M11,T5_M11,U1_M11,ZSPAN_M11,X0_M11,X2_M11,X1_M11
2024-04-08 18:00:00,SystemResetWarning,0825.9,5.00,000.00,020.0,019.6,000.0,028.3,021.8,010.6,0000.0,0008.53,0003.31,0002.32
2024-04-08 18:01:00,SystemResetWarning,0825.9,5.00,000.00,020.0,019.6,000.0,028.3,021.8,010.4,0000.0,0008.71,0003.33,0002.31
2024-04-08 18:02:00,SystemResetWarning,0825.9,5.01,000.00,020.0,019.6,000.0,028.3,021.8,010.3,0000.0,0009.45,0003.33,0002.30
2024-04-08 18:03:00,SystemResetWarning,0825.9,5.00,000.00,020.0,019.6,000.0,028.3,021.8,010.3,0000.0,0009.82,0003.30,0002.28
2024-04-08 18:04:00,SystemResetWarning,0825.9,5.00,000.00,020.0,019.6,000.0,028.3,021.8,010.6,0000.0,0009.49,0003.29,0002.27
2024-04-08 18:05:00,SystemResetWarning,0825.9,5.00,000.00,020.1,019.6,000.0,028.3,021.8,010.8,0000.0,0010.11,0003.30,0002.29
2024-04-08 18:06:00,SystemResetWarning,0825.9,4.99,000.00,020.1,019.6,000.0,028.4,021.8,010.6,0000.0,0010.77,0003.31,0002.29
2024-04-08 18:07:00,SystemResetWarning,0825.9,5.00,000.00,020.1,019.7,000.0,028.4,021.9,010.2,0000.0,0010.85,0003.33,0002.29
2024-04-08 18:08:00,SystemResetWarning,0825.9,4.99,000.00,020.1,019.7,000.0,028.4,021.9,010.4,0000.0,0010.68,0003.31,0002.29
2024-04-08 18:09:00,SystemResetWarning,0825.8,5.02,000.00,020.1,019.7,000.0,028.4,021.9,010.5,0000.0,0010.35,0003.29,0002.27
2024-04-08 18:10:00,SystemResetWarning,0825.8,5.01,000.00,020.1,019.7,000.0,028.4,021.9,010.7,0000.0,0010.32,0003.28,0002.27
2024-04-08 18:11:00,SystemResetWarning,0825.9,4.99,000.00,020.1,019.7,000.0,028.4,021.9,010.7,0000.0,0011.07,0003.30,0002.27
2024-04-08 18:12:00,SystemResetWarning,0825.7,4.99,000.00,020.2,019.7,000.0,028.4,021.9,010.5,0000.0,0011.08,0003.28,0002.30
2024-04-08 18:13:00,SystemResetWarning,0825.8,4.99,000.00,020.2,019.7,000.0,028.5,021.9,010.5,0000.0,0010.48,0003.26,0002.30
2024-04-08 18:14:00,SystemResetWarning,0825.8,5.00,000.00,020.2,019.7,000.0,028.5,021.9,010.7,0000.0,0009.97,0003.25,0002.29
2024-04-08 18:15:00,SystemResetWarning,0825.8,5.00,000.00,020.2,019.7,000.0,028.5,021.9,010.8,0000.0,0009.86,0003.24,0002.28
2024-04-08 18:16:00,SystemResetWarning,0825.8,5.02,000.00,020.2,019.8,000.0,028.5,022.0,010.9,0000.0,0009.33,0003.21,0002.27
2024-04-08 18:17:00,SystemResetWarning,0825.8,4.99,000.00,020.2,019.8,000.0,028.5,022.0,011.1,0000.0,0009.12,0003.20,0002.26
2024-04-08 18:18:00,SystemResetWarning,0825.8,4.99,000.00,020.2,019.8,000.0,028.5,022.0,010.6,0000.0,0009.12,0003.19,0002.26
2024-04-08 18:19:00,SystemResetWarning,0825.7,4.99,000.00,020.2,019.8,000.0,028.5,022.0,010.6,0000.0,0009.38,0003.21,0002.25
2024-04-08 18:20:00,SystemResetWarning,0825.8,5.00,000.00,020.3,019.8,000.0,028.6,022.0,010.3,0000.0,0009.63,0003.23,0002.26
2024-04-08 18:21:00,SystemResetWarning,0825.7,5.00,000.00,020.3,019.8,000.0,028.6,022.0,010.2,0000.0,0009.76,0003.26,0002.28
2024-04-08 18:22:00,SystemResetWarning,0825.8,5.00,000.00,020.3,019.8,000.0,028.6,022.0,010.1,0000.0,0009.87,0003.29,0002.28
2024-04-08 18:23:00,SystemResetWarning,0825.8,5.01,000.00,020.3,019.8,000.0,028.6,022.0,010.1,0000.0,0009.80,0003.30,0002.27
2024-04-08 18:24:00,SystemResetWarning,0825.8,4.99,000.00,020.3,019.8,000.0,028.6,022.1,010.3,0000.0,0010.61,0003.31,0002.27
2024-04-08 18:25:00,SystemResetWarning,0825.8,4.98,000.00,020.3,019.8,000.0,028.6,022.1,010.3,0000.0,0010.68,0003.37,0002.29
2024-04-08 18:26:00,SystemResetWarning,0825.8,5.01,000.00,020.3,019.9,000.0,028.6,022.1,010.1,0000.0,0011.42,0003.43,0002.33
2024-04-08 18:27:00,SystemResetWarning,0825.8,5.00,000.00,020.3,019.9,000.0,028.6,022.1,010.3,0000.0,0011.71,0003.44,0002.34
2024-04-08 18:28:00,SystemResetWarning,0825.8,5.00,000.00,020.3,019.9,000.0,028.7,022.1,009.8,0000.0,0011.00,0003.46,0002.36
2024-04-08 18:29:00,SystemResetWarning,0825.7,5.00,000.00,020.4,019.9,000.0,028.7,022.1,009.8,0000.0,0011.72,0003.48,0002.35
2024-04-08 18:30:00,SystemResetWarning,0825.7,4.99,000.00,020.4,019.9,000.0,028.7,022.1,009.9,0000.0,0011.42,0003.44,0002.34
2024-04-08 18:31:00,SystemResetWarning,0825.7,5.00,000.00,020.4,019.9,000.0,028.7,022.1,010.0,0000.0,0011.13,0003.40,0002.34
2024-04-08 18:32:00,SystemResetWarning,0825.7,5.00,000.00,020.4,019.9,000.0,028.7,022.1,010.3,0000.0,0010.99,0003.40,0002.31
2024-04-08 18:33:00,SystemResetWarning,0825.7,5.00,000.00,020.4,019.9,000.0,028.7,022.1,010.1,0000.0,0010.60,0003.37,0002.32
2024-04-08 18:34:00,SystemResetWarning,0825.7,5.00,000.00,020.4,019.9,000.0,028.7,022.1,010.4,0000.0,0009.98,0003.35,0002.32
2024-04-08 18:35:00,SystemResetWarning,0825.7,5.00,000.00,020.4,019.9,000.0,028.7,022.1,010.6,0000.0,0009.71,0003.38,0002.32
2024-04-08 18:36:00,SystemResetWarning,0825.7,5.00,000.00,020.4,019.9,000.0,028.7,022.2,010.1,0000.0,0009.57,0003.37,0002.31
2024-04-08 18:37:00,SystemResetWarning,0825.7,5.00,000.00,020.4,019.9,000.0,028.8,022.2,009.8,0000.0,0008.97,0003.31,0002.30
2024-04-08 18:38:00,SystemResetWarning,0825.7,5.00,000.00,020.5,019.9,000.0,028.8,022.2,009.9,0000.0,0008.72,0003.30,0002.28
2024-04-08 18:39:00,SystemResetWarning,0825.6,5.00,000.00,020.5,019.9,000.0,028.8,022.2,010.0,0000.0,0008.78,0003.28,0002.26
2024-04-08 18:40:00,SystemResetWarning,0825.7,4.99,000.00,020.5,019.9,000.0,028.8,022.2,010.0,0000.0,0008.12,0003.24,0002.26
2024-04-08 18:41:00,SystemResetWarning,0825.6,4.99,000.00,020.5,019.9,000.0,028.8,022.2,010.2,0000.0,0007.78,0003.25,0002.27
2024-04-08 18:42:00,SystemResetWarning,0825.6,5.00,000.00,020.5,019.9,000.0,028.8,022.2,010.2,0000.0,0007.88,0003.27,0002.26
2024-04-08 18:43:00,SystemResetWarning,0825.7,5.01,000.00,020.5,019.9,000.0,028.8,022.2,010.0,0000.0,0008.83,0003.26,0002.26
2024-04-08 18:44:00,SystemResetWarning,0825.7,5.01,000.00,020.5,019.9,000.0,028.8,022.2,009.7,0000.0,0009.09,0003.26,0002.27
2024-04-08 18:45:00,SystemResetWarning,0825.7,5.01,000.00,020.5,019.9,000.0,028.8,022.2,009.8,0000.0,0009.20,0003.28,0002.26
2024-04-08 18:46:00,SystemResetWarning,0825.7,4.99,000.00,020.5,019.9,000.0,028.9,022.2,009.7,0000.0,0009.63,0003.24,0002.25
2024-04-08 18:47:00,SystemResetWarning,0825.7,4.99,000.00,020.5,019.9,000.0,028.9,022.2,009.6,0000.0,0009.48,0003.23,0002.25
2024-04-08 18:48:00,SystemResetWarning,0825.7,4.99,000.00,020.5,019.9,000.0,028.9,022.2,009.7,0000.0,0009.46,0003.24,0002.25
2024-04-08 18:49:00,SystemResetWarning,0825.7,5.00,000.00,020.5,019.9,000.0,028.9,022.2,009.8,0000.0,0009.14,0003.25,0002.28
2024-04-08 18:50:00,SystemResetWarning,0825.6,5.00,000.00,020.5,019.9,000.0,028.9,022.2,009.7,0000.0,0009.10,0003.28,0002.30
2024-04-08 18:51:00,SystemResetWarning,0825.6,5.01,000.00,020.5,019.9,000.0,028.9,022.2,009.6,0000.0,0009.49,0003.33,0002.31
2024-04-08 18:52:00,SystemResetWarning,0825.6,5.01,000.00,020.5,019.9,000.0,028.9,022.2,009.9,0000.0,0009.97,0003.36,0002.32
2024-04-08 18:53:00,SystemResetWarning,0825.7,4.99,000.00,020.5,019.9,000.0,028.9,022.2,010.2,0000.0,0011.14,0003.37,0002.34
2024-04-08 18:54:00,SystemResetWarning,0825.6,4.98,000.00,020.5,019.9,000.0,028.9,022.2,010.0,0000.0,0010.18,0003.41,0002.36
2024-04-08 18:55:00,SystemResetWarning,0825.7,5.00,000.00,020.5,019.9,000.0,028.9,022.2,010.1,0000.0,0009.88,0003.41,0002.35
2024-04-08 18:56:00,SystemResetWarning,0825.7,5.01,000.00,020.5,019.9,000.0,028.9,022.2,010.3,0000.0,0011.03,0003.44,0002.37
2024-04-08 18:57:00,SystemResetWarning,0825.7,5.01,000.00,020.5,019.9,000.0,028.9,022.2,009.9,0000.0,0010.89,0003.49,0002.39
2024-04-08 18:58:00,SystemResetWarning,0825.7,5.00,000.00,020.5,019.9,000.0,028.9,022.2,009.8,0000.0,0010.86,0003.50,0002.37
2024-04-08 18:59:00,SystemResetWarning,0825.7,5.00,000.00,020.5,019.9,000.0,028.9,022.3,010.1,0000.0,0010.87,0003.48,0002.36
